Location: DaVinci Observatory
(43.1080°N, 78.6453°W)
Time: 03:51:52
(UTC-04:00)

Envisat - Pass Details

Date: 11 October 2017
Orbit: 764 x 766 km, 98.2° (Epoch: 16 October)

Event Time Altitude Azimuth Distance (km) Brightness Sun altitude
Exits shadow 22:10:56 21° 278° (W) 1,676 5.2 -38.4°
Drops below altitude 10° 22:14:08 10° 317° (NW) 2,309 6.1 -38.9°
Sets 22:16:59 0° 333° (NNW) 3,240 6.9 -39.4°
